TimeMST,TemperatureF,Dew PointF,Humidity,Sea Level PressureIn,VisibilityMPH,Wind Direction,Wind SpeedMPH,Gust SpeedMPH,PrecipitationIn,Events,Conditions,WindDirDegrees,DateUTC
12:56 AM,19.9,15.1,81,29.92,-9999.0,West,6.9,-,N/A,,Unknown,280,2012-12-07 07:56:00
1:56 AM,18.0,12.9,81,29.94,-9999.0,Variable,6.9,-,N/A,,Unknown,0,2012-12-07 08:56:00
2:56 AM,19.0,12.9,77,29.95,-9999.0,West,8.1,-,N/A,,Unknown,280,2012-12-07 09:56:00
3:56 AM,17.1,12.0,81,29.96,-9999.0,Variable,4.6,-,N/A,,Unknown,0,2012-12-07 10:56:00
4:56 AM,15.1,10.0,80,29.97,-9999.0,Variable,4.6,-,N/A,,Unknown,0,2012-12-07 11:56:00
5:56 AM,12.9,8.1,81,29.99,-9999.0,West,4.6,-,N/A,,Unknown,280,2012-12-07 12:56:00
6:56 AM,16.0,10.9,81,29.98,-9999.0,West,4.6,-,N/A,,Unknown,270,2012-12-07 13:56:00
7:56 AM,16.0,10.0,77,29.99,-9999.0,Variable,6.9,-,N/A,,Unknown,0,2012-12-07 14:56:00
8:56 AM,17.1,12.0,81,30.00,-9999.0,West,6.9,-,N/A,,Unknown,260,2012-12-07 15:56:00
9:56 AM,18.0,12.0,78,30.02,-9999.0,Variable,5.8,-,0.01,,Unknown,0,2012-12-07 16:56:00
10:56 AM,19.9,10.0,65,30.02,-9999.0,West,8.1,-,N/A,,Unknown,280,2012-12-07 17:56:00
11:56 AM,19.0,12.0,74,30.01,-9999.0,Variable,4.6,-,N/A,,Unknown,0,2012-12-07 18:56:00
12:56 PM,19.9,10.0,65,30.00,-9999.0,Variable,5.8,-,N/A,,Unknown,0,2012-12-07 19:56:00
1:56 PM,19.9,12.0,71,30.00,-9999.0,Variable,5.8,-,N/A,,Unknown,0,2012-12-07 20:56:00
2:56 PM,18.0,10.9,74,29.98,-9999.0,West,8.1,-,N/A,,Unknown,260,2012-12-07 21:56:00
3:56 PM,18.0,12.0,78,29.99,-9999.0,Variable,6.9,-,N/A,,Unknown,0,2012-12-07 22:56:00
4:56 PM,17.1,10.9,77,29.99,-9999.0,Variable,6.9,-,N/A,,Unknown,0,2012-12-07 23:56:00
5:56 PM,17.1,10.9,77,29.98,-9999.0,Variable,5.8,-,N/A,,Unknown,0,2012-12-08 00:56:00
6:56 PM,17.1,12.0,81,29.93,-9999.0,Variable,3.5,-,N/A,,Unknown,0,2012-12-08 01:56:00
7:56 PM,18.0,12.9,81,29.91,-9999.0,Variable,5.8,-,N/A,,Unknown,0,2012-12-08 02:56:00
8:56 PM,18.0,12.9,81,29.87,-9999.0,Variable,6.9,-,N/A,,Unknown,0,2012-12-08 03:56:00
9:56 PM,18.0,14.0,84,29.85,-9999.0,Variable,6.9,-,N/A,,Unknown,0,2012-12-08 04:56:00
10:56 PM,18.0,12.9,81,29.81,-9999.0,Variable,4.6,-,N/A,,Unknown,0,2012-12-08 05:56:00
11:56 PM,18.0,12.9,81,29.79,-9999.0,West,8.1,-,N/A,,Unknown,260,2012-12-08 06:56:00